Location: *
(37.5724°S, 58.0067°E)
Time: 23:11:56
(UTC+00:00)

Cosmos 1943 Rocket - Pass Details

Date: 17 January 2021
Orbit: 810 x 845 km, 71.0° (Epoch: 25 February)

Event Time Altitude Azimuth Distance (km) Brightness Sun altitude
Rises 17:22:17 0° 218° (SW) 3,370 7.0 -18.6°
Reaches altitude 10° 17:25:14 10° 232° (SW) 2,426 5.8 -19.0°
Maximum altitude 17:29:20 22° 280° (W) 1,736 4.2 -19.6°
Drops below altitude 10° 17:33:25 10° 329° (NNW) 2,398 4.4 -20.1°
Enters shadow 17:34:19 - 335° (NNW) 2,661 4.6 -20.2°
